Hauptseite
METAR-TAF:

METAR-TAF

Flughäfen :

Passo della Cisa, Italien

Breite: 44-26N, Länge: 009-56E, Höhe: 1039 m

Beobachtung

Neuester Wetterbericht von vor 2 Stunden und 47 Minuten, um 16:55 UTC
Wind 5 kt aus Süd/Südost
Temperatur 3°C
Luftfeuchtigkeit 52%
Luftdruck 1011 hPa
Sichtweite 10 km oder mehr
keine Wolken unter 1500 m und keine Kumulonimbus oder Gewitterwolken

METAR: LIMT 221655Z 15005KT CAVOK 03/M06 Q1011 RMK SCT SCT100 MON LIB VAL NIL VIS MIN 9999

Zeit: 20:42 (19:42 UTC)


TAF: fehlend

Wetterbeobachtungen und Prognosen von mehr als 4000 Flughäfen (METAR und TAF Bericht).

Die verfügbaren Stationen werden durch gelbe und rote Markierungen auf der Karte dargestellt.

Führen Sie die Maus auf sie, um den Namen der Station zu sehen.

Darauf klicken, um die Beobachtung von Wetterbeobachtungen und Prognosen zu sehen.

Um die Karte zu ändern : klicken Sie auf den grünen Tasten mit einem schwarzen Kreuz Zum Vergrößern, auf den grünen Button mit einem Gedankenstrich zu verkleinern, oder auf die grünen Pfeile für benachbarte Karten.


METAR-TAF: